Temp
89 89 89 89 89 90 90 90 91 90 89 92 92 91 91 92 92 93 93 92 91 91 91 90 90 89 90 89 89 89 89 88 88 88 87 87 86 87 87 87 87 87
88 89 89 89 89 90 90 91 90 90 90 90 92 93 92 92 93 93 93 92 92 91 91 91 90 89 89 90 89 88 87 88 87 90 87 87 86 87 88 87 88 87
89 89 89 89 91 91 93 92 91 91 92 92 92 92 94 94 93 92 92 93 92 92 91 91 90 89 90 90 89 88 88 87 87 89 87 86 87 86 87 90 88 87
88 89 90 91 91 91 91 91 91 91 92 92 92 94 94 95 93 93 92 91 92 91 91 91 90 91 89 89 89 89 88 87 88 88 87 87 87 87 87 88 88 88
89 89 90 91 91 91 91 91 92 92 92 92 94 93 92 92 92 93 92 92 91 92 91 91 91 90 89 89 89 88 88 88 88 87 87 86 86 86 88 87 87 87
89 89 89 90 91 90 91 91 91 93 93 94 93 94 93 93 93 93 93 93 93 93 93 92 91 91 91 89 88 88 89 89 89 87 87 86 87 88 88 87 86 86
90 90 90 91 92 91 91 91 91 92 94 94 93 93 93 93 92 92 92 92 93 91 93 91 90 90 90 89 88 87 88 88 89 87 86 86 86 86 88 87 86 85
91 92 91 91 91 92 91 92 92 92 92 93 93 93 93 94 92 93 92 93 93 92 91 92 90 89 92 90 88 87 87 89 89 87 86 86 86 85 86 87 86 85
92 92 91 91 92 93 94 94 94 93 93 92 94 95 93 93 93 93 91 91 91 91 91 91 90 90 90 90 88 87 87 88 89 88 87 86 86 86 87 87 86 85
91 92 93 94 93 94 94 95 96 95 94 93 94 96 95 93 93 93 92 90 91 90 91 90 90 90 90 90 89 88 87 87 88 88 88 88 87 87 88 87 86 85
91 93 93 93 94 95 95 96 97 97 96 95 95 95 96 94 92 93 91 90 90 90 90 90 90 90 89 90 90 89 89 89 88 88 88 88 87 87 86 87 86 86
91 92 94 93 94 96 96 97 98 98 98 96 96 95 95 97 94 93 92 91 90 91 90 90 90 90 89 89 91 91 89 89 89 89 89 88 88 89 88 88 87 87
91 92 93 94 93 95 97 97 99 100 100 98 97 96 96 97 97 93 92 92 91 91 91 90 90 90 89 89 90 90 89 89 89 89 89 89 89 90 91 90 89 89
91 92 93 93 94 92 94 96 98 98 97 97 97 95 96 96 97 95 94 93 92 91 91 91 90 90 89 89 89 90 90 89 89 89 89 89 89 90 91 91 90 90
91 91 92 93 93 92 92 94 95 95 95 96 95 96 96 97 97 97 94 92 92 91 91 92 91 90 90 90 89 89 90 90 89 89 89 88 89 90 91 91 91 92
91 91 91 91 91 91 91 92 94 94 95 95 95 96 95 94 94 95 97 94 92 91 91 91 91 91 83 75 78 89 89 90 89 88 89 89 88 88 90 91 92 93
90 90 90 90 90 91 91 91 91 92 92 93 93 94 93 92 93 95 96 96 94 93 92 91 92 91 73 69 71 75 87 89 89 88 88 88 89 87 87 89 90 91
91 90 89 89 90 90 90 90 91 91 91 91 92 93 92 94 93 93 93 95 95 94 94 92 92 79 68 68 69 70 76 89 91 89 89 88 89 89 88 89 89 91
90 90 89 89 89 90 90 90 89 90 90 90 91 92 92 91 91 92 92 93 94 92 93 94 94 75 66 67 68 68 69 80 92 90 90 89 89 88 89 88 88 89
90 90 89 89 89 89 90 89 89 89 89 91 91 91 90 91 91 91 91 90 91 92 91 94 94 74 65 65 66 66 68 74 91 91 90 90 89 89 90 89 88 88
90 90 89 89 89 89 89 89 88 89 89 90 92 91 90 89 90 90 90 90 92 93 93 94 97 70 63 63 63 63 65 70 88 90 90 89 89 89 88 89 89 88
90 90 89 89 89 89 88 88 88 88 88 89 91 92 92 92 91 92 91 91 91 92 93 92 96 68 61 62 62 62 64 78 86 87 88 89 89 89 89 89 89 88
92 91 89 89 89 89 88 88 88 88 89 90 89 91 92 92 91 92 91 92 91 91 90 90 94 73 59 60 61 60 66 82 84 86 87 87 88 89 89 89 88 88
92 91 90 89 89 89 89 89 90 90 90 90 90 91 92 93 93 92 92 92 92 92 92 91 93 76 56 59 59 58 68 82 84 85 85 85 87 88 88 88 87 78
93 92 91 91 89 90 90 90 90 90 91 91 92 91 91 92 92 92 93 92 95 94 81 89 93 80 56 59 57 57 69 83 84 85 84 85 85 86 87 88 88 80
93 91 90 91 90 90 90 90 91 92 92 92 91 92 92 93 93 92 92 93 95 95 95 93 92 92 70 57 56 56 61 82 85 83 83 84 85 85 86 86 87 88
MSLP
1010.50 1010.74 1011.06 1011.30 1011.42 1011.50 1011.70 1011.98 1012.06 1012.34 1012.50 1012.42 1012.70 1012.74 1012.82 1012.78 1012.74 1012.90 1013.14 1013.38 1013.70 1013.98 1014.10 1014.30 1014.54 1014.78 1014.94 1015.10 1015.26 1015.54 1015.78 1016.06 1016.18 1016.42 1016.66 1016.90 1017.26 1017.42 1017.58 1017.66 1017.58 1017.50
1010.06 1010.22 1010.50 1010.70 1010.94 1011.02 1011.14 1011.22 1011.54 1011.78 1012.02 1012.06 1012.02 1012.06 1012.14 1012.30 1012.46 1012.62 1012.86 1013.10 1013.34 1013.66 1013.78 1013.98 1014.30 1014.50 1014.70 1014.86 1015.10 1015.46 1015.74 1015.86 1016.14 1015.94 1016.54 1016.78 1016.94 1017.14 1017.26 1017.34 1017.46 1017.30
1009.54 1009.90 1010.14 1010.38 1010.46 1010.62 1010.70 1010.78 1010.98 1011.22 1011.42 1011.50 1011.58 1011.66 1011.78 1011.82 1012.14 1012.26 1012.46 1012.70 1013.02 1013.26 1013.50 1013.66 1014.02 1014.26 1014.42 1014.58 1014.78 1015.18 1015.50 1015.74 1015.98 1015.74 1016.18 1016.54 1016.58 1016.90 1016.90 1016.90 1017.14 1017.26
1009.06 1009.22 1009.46 1009.66 1009.78 1010.10 1010.22 1010.50 1010.66 1010.78 1010.86 1011.18 1011.30 1011.18 1011.34 1011.38 1011.66 1011.98 1012.22 1012.42 1012.70 1012.94 1013.06 1013.30 1013.62 1013.90 1014.18 1014.34 1014.58 1014.90 1015.10 1015.38 1015.42 1015.46 1015.90 1016.06 1016.30 1016.46 1016.66 1016.66 1016.74 1016.90
1008.42 1008.74 1008.90 1009.06 1009.22 1009.46 1009.78 1010.14 1010.26 1010.34 1010.50 1010.54 1010.66 1010.86 1011.10 1011.30 1011.46 1011.66 1011.94 1012.18 1012.38 1012.66 1012.82 1013.06 1013.22 1013.50 1013.78 1014.10 1014.34 1014.74 1014.82 1015.14 1015.14 1015.34 1015.70 1015.98 1016.06 1016.22 1016.30 1016.42 1016.66 1016.86
1007.78 1008.02 1008.26 1008.54 1008.78 1009.10 1009.42 1009.62 1009.70 1009.78 1009.98 1010.18 1010.34 1010.38 1010.62 1010.86 1011.14 1011.30 1011.50 1011.86 1012.02 1012.22 1012.42 1012.66 1012.98 1013.14 1013.34 1013.78 1014.10 1014.38 1014.50 1014.74 1014.82 1015.14 1015.50 1015.74 1015.82 1015.78 1015.94 1016.14 1016.42 1016.70
1007.22 1007.50 1007.82 1007.98 1008.30 1008.50 1008.90 1009.06 1009.18 1009.30 1009.38 1009.50 1009.70 1010.10 1010.14 1010.50 1010.82 1010.98 1011.10 1011.34 1011.58 1011.86 1012.06 1012.30 1012.66 1012.90 1012.98 1013.34 1013.82 1014.18 1014.22 1014.34 1014.42 1014.82 1015.30 1015.38 1015.50 1015.62 1015.58 1015.86 1016.14 1016.42
1006.50 1006.74 1007.10 1007.42 1007.86 1008.10 1008.46 1008.58 1008.70 1008.86 1008.90 1009.10 1009.46 1009.54 1009.66 1009.98 1010.30 1010.50 1010.70 1010.90 1011.22 1011.50 1011.78 1011.90 1012.18 1012.50 1012.62 1012.94 1013.46 1013.86 1014.02 1014.02 1014.18 1014.46 1014.82 1015.06 1015.22 1015.50 1015.42 1015.46 1015.74 1016.14
1005.86 1006.26 1006.58 1007.06 1007.42 1007.62 1007.86 1007.98 1008.14 1008.30 1008.38 1008.78 1008.94 1009.02 1009.18 1009.46 1009.74 1010.02 1010.34 1010.58 1010.90 1011.14 1011.46 1011.70 1011.86 1012.18 1012.26 1012.54 1012.98 1013.38 1013.70 1013.74 1013.74 1013.98 1014.30 1014.66 1014.94 1015.10 1015.14 1015.18 1015.50 1015.78
1005.42 1005.62 1006.06 1006.42 1006.82 1006.90 1007.14 1007.22 1007.34 1007.62 1007.82 1008.18 1008.34 1008.42 1008.78 1009.02 1009.18 1009.50 1009.90 1010.30 1010.62 1010.86 1011.10 1011.38 1011.58 1011.78 1011.98 1012.14 1012.46 1012.78 1013.14 1013.38 1013.38 1013.50 1013.66 1013.98 1014.26 1014.50 1014.66 1014.82 1015.10 1015.42
1004.86 1005.10 1005.46 1005.74 1005.98 1006.10 1006.34 1006.50 1006.66 1006.86 1007.14 1007.54 1007.78 1008.06 1008.14 1008.50 1008.90 1009.02 1009.46 1009.86 1010.26 1010.50 1010.74 1010.98 1011.18 1011.34 1011.66 1011.82 1011.90 1012.10 1012.46 1012.74 1012.90 1013.06 1013.18 1013.38 1013.62 1013.82 1014.02 1014.26 1014.58 1014.82
1004.30 1004.54 1004.78 1005.06 1005.26 1005.38 1005.58 1005.74 1005.94 1006.22 1006.46 1006.82 1007.10 1007.54 1007.70 1007.86 1008.38 1008.70 1008.94 1009.38 1009.62 1009.86 1010.10 1010.38 1010.58 1010.82 1011.10 1011.34 1011.46 1011.58 1011.86 1012.10 1012.34 1012.58 1012.70 1012.90 1013.10 1013.22 1013.42 1013.58 1013.94 1014.14
1003.66 1003.90 1004.02 1004.34 1004.58 1004.74 1004.78 1005.06 1005.30 1005.50 1005.78 1006.14 1006.42 1006.86 1007.22 1007.50 1007.66 1008.18 1008.38 1008.70 1009.06 1009.26 1009.54 1009.78 1010.06 1010.26 1010.54 1010.82 1010.94 1011.10 1011.34 1011.70 1011.90 1012.14 1012.30 1012.46 1012.54 1012.62 1012.70 1012.90 1013.14 1013.38
1002.94 1003.14 1003.42 1003.58 1003.78 1004.14 1004.38 1004.50 1004.70 1004.98 1005.18 1005.42 1005.82 1006.38 1006.66 1006.86 1007.10 1007.50 1007.82 1008.06 1008.34 1008.66 1008.82 1009.02 1009.42 1009.74 1009.94 1010.18 1010.38 1010.54 1010.86 1011.22 1011.42 1011.62 1011.90 1012.06 1012.10 1012.10 1012.10 1012.22 1012.42 1012.62
1002.42 1002.70 1002.90 1003.14 1003.42 1003.82 1004.14 1004.26 1004.38 1004.58 1004.82 1005.10 1005.42 1005.78 1005.98 1006.18 1006.38 1006.66 1007.26 1007.66 1007.82 1008.06 1008.30 1008.46 1008.82 1009.06 1009.22 1009.50 1009.90 1010.18 1010.30 1010.70 1010.94 1011.10 1011.34 1011.66 1011.78 1011.74 1011.66 1011.70 1011.82 1011.94
1002.10 1002.34 1002.62 1002.86 1003.22 1003.54 1003.82 1003.98 1004.14 1004.30 1004.62 1004.90 1005.14 1005.30 1005.58 1005.86 1006.06 1006.30 1006.54 1007.06 1007.46 1007.66 1007.78 1007.98 1008.14 1008.18 1008.38 1008.82 1009.14 1009.54 1009.86 1010.06 1010.30 1010.58 1010.78 1011.02 1011.38 1011.54 1011.38 1011.30 1011.34 1011.34
1001.78 1002.14 1002.38 1002.82 1002.90 1003.14 1003.50 1003.82 1004.02 1004.10 1004.38 1004.66 1004.90 1005.10 1005.34 1005.58 1005.90 1006.18 1006.22 1006.30 1006.78 1007.14 1007.46 1007.46 1007.46 1007.46 1007.90 1008.38 1008.74 1009.02 1009.30 1009.54 1009.82 1010.14 1010.30 1010.54 1010.78 1011.06 1011.14 1010.98 1010.90 1010.86
1001.38 1001.78 1002.22 1002.46 1002.74 1003.06 1003.22 1003.50 1003.78 1004.02 1004.30 1004.50 1004.70 1004.94 1005.10 1005.26 1005.66 1005.86 1005.90 1005.94 1006.10 1006.46 1006.78 1006.86 1006.86 1006.82 1007.34 1007.78 1008.14 1008.46 1008.66 1008.90 1009.10 1009.46 1009.74 1009.98 1010.14 1010.26 1010.30 1010.30 1010.34 1010.38
1000.86 1001.38 1001.78 1002.10 1002.34 1002.62 1002.94 1003.26 1003.62 1003.90 1004.14 1004.34 1004.54 1004.50 1004.78 1005.18 1005.26 1005.46 1005.66 1005.62 1005.70 1005.98 1006.18 1006.14 1006.22 1006.26 1006.82 1007.22 1007.58 1007.90 1008.22 1008.42 1008.50 1008.74 1009.06 1009.30 1009.46 1009.58 1009.58 1009.62 1009.66 1009.82
1000.42 1000.82 1001.26 1001.54 1001.86 1002.22 1002.54 1002.94 1003.26 1003.50 1003.54 1003.70 1004.02 1004.26 1004.58 1004.74 1004.86 1005.06 1005.18 1005.30 1005.34 1005.46 1005.58 1005.50 1005.50 1005.62 1006.26 1006.70 1007.10 1007.50 1007.82 1008.10 1008.02 1008.22 1008.42 1008.54 1008.74 1008.94 1008.98 1009.02 1009.14 1009.34
1000.14 1000.46 1000.90 1001.26 1001.54 1001.86 1002.22 1002.54 1002.78 1003.02 1003.34 1003.42 1003.58 1003.86 1004.14 1004.42 1004.54 1004.74 1004.70 1004.78 1004.86 1004.94 1005.14 1005.14 1004.82 1005.10 1005.78 1006.26 1006.70 1007.22 1007.58 1007.90 1007.74 1007.78 1007.90 1008.06 1008.10 1008.22 1008.30 1008.38 1008.54 1008.70
999.74 1000.26 1000.66 1000.98 1001.30 1001.62 1001.94 1002.22 1002.34 1002.58 1002.90 1002.98 1003.18 1003.30 1003.42 1003.62 1003.86 1003.90 1004.18 1004.42 1004.46 1004.58 1004.70 1004.78 1004.34 1004.70 1005.26 1005.82 1006.26 1006.82 1007.34 1007.70 1007.50 1007.62 1007.66 1007.66 1007.66 1007.58 1007.58 1007.62 1007.70 1007.90
999.26 999.74 1000.22 1000.50 1000.78 1001.18 1001.46 1001.66 1001.90 1002.18 1002.38 1002.46 1002.98 1003.02 1003.18 1003.30 1003.38 1003.50 1003.54 1003.82 1003.98 1004.10 1004.30 1004.26 1004.10 1004.30 1004.94 1005.38 1005.82 1006.34 1007.10 1007.14 1007.18 1007.34 1007.38 1007.38 1007.18 1007.02 1007.06 1006.98 1006.94 1006.98
998.78 999.18 999.66 1000.02 1000.34 1000.66 1000.82 1001.06 1001.30 1001.54 1001.90 1001.94 1002.50 1002.78 1002.86 1002.74 1002.86 1003.14 1003.14 1003.22 1003.46 1003.62 1003.62 1004.06 1003.94 1003.90 1004.58 1005.10 1005.54 1006.02 1006.22 1006.38 1006.58 1006.82 1006.94 1006.86 1006.62 1006.38 1006.26 1006.30 1006.26 1006.42
998.46 998.86 999.26 999.66 999.98 1000.22 1000.46 1000.86 1001.06 1001.26 1001.38 1001.58 1001.86 1002.14 1002.34 1002.26 1002.42 1002.62 1002.70 1002.70 1002.66 1002.82 1003.06 1003.42 1003.38 1003.46 1003.98 1004.46 1005.02 1005.50 1005.78 1005.70 1005.90 1006.10 1006.26 1005.94 1005.78 1005.86 1005.70 1005.74 1005.82 1006.06
997.98 998.50 998.86 999.22 999.62 999.90 1000.06 1000.26 1000.46 1000.78 1001.02 1001.22 1001.38 1001.50 1001.82 1001.90 1001.94 1002.06 1002.34 1002.30 1002.14 1002.34 1002.50 1002.62 1002.90 1002.86 1003.42 1003.98 1004.54 1005.06 1005.14 1005.02 1005.06 1005.58 1005.62 1005.46 1005.58 1005.70 1005.82 1005.54 1005.38 1005.46
Wind_Speed
14 13 14 13 13 12 12 13 12 12 11 11 11 10 11 10 10 10 11 11 11 11 11 10 10 10 9 9 8 7 7 8 8 8 8 8 8 9 8 10 9 7
16 15 13 13 12 12 12 13 12 12 12 11 10 10 10 10 11 11 11 11 12 12 11 11 11 11 10 9 9 8 7 8 9 8 9 10 8 9 9 10 10 8
17 16 16 16 15 16 16 14 13 12 12 12 12 10 10 10 11 12 11 12 12 13 12 11 12 11 11 10 10 9 9 9 9 9 9 10 9 9 9 9 9 10
18 18 17 17 15 15 14 13 13 12 12 12 13 12 11 10 11 12 12 13 12 12 12 13 13 12 12 11 11 9 10 9 9 9 10 9 9 9 9 8 9 9
20 18 17 16 15 14 13 14 16 14 15 13 12 12 11 11 11 12 12 12 12 13 12 13 13 13 12 11 11 10 10 10 10 10 9 10 10 10 10 9 10 10
18 17 17 16 15 15 15 16 16 16 15 15 14 12 12 13 12 12 13 14 13 13 14 13 13 13 14 12 12 11 10 10 11 12 11 11 11 11 9 10 11 11
20 19 19 17 17 17 16 16 15 15 15 14 12 13 13 14 14 14 13 13 14 13 14 13 13 13 12 12 12 12 10 11 11 13 13 11 11 12 12 11 11 11
20 19 18 17 18 17 17 16 15 15 14 13 14 14 14 14 15 14 13 14 14 14 13 13 13 13 14 13 13 13 13 10 11 13 14 13 12 12 13 11 11 12
19 19 18 20 20 18 19 19 17 16 15 15 15 14 14 14 14 14 13 14 13 13 13 13 13 14 13 13 13 14 14 13 12 14 14 14 14 14 14 13 12 12
19 19 21 21 21 19 21 20 18 17 16 16 16 15 14 14 14 15 14 14 14 13 13 13 14 14 14 14 14 15 14 14 13 14 14 15 15 15 14 14 14 13
21 20 21 22 22 19 22 21 20 18 16 17 17 17 16 14 14 14 14 14 14 15 14 14 14 15 15 15 14 14 15 14 14 14 14 15 15 15 14 14 14 14
21 21 22 22 22 21 22 21 20 19 18 16 17 17 17 16 15 14 14 15 15 15 15 15 14 15 15 15 16 15 15 15 14 14 15 15 15 15 15 15 14 15
21 21 20 21 20 20 19 19 19 20 20 18 17 17 17 17 17 16 14 15 16 15 16 16 16 16 15 15 15 15 15 15 15 15 14 14 15 16 16 16 16 15
19 19 19 19 18 17 17 18 18 18 17 16 15 17 18 18 18 17 16 16 16 16 16 16 16 16 16 16 16 15 15 16 15 15 15 15 15 16 16 16 16 16
17 16 17 17 17 16 17 17 16 16 15 15 15 16 15 17 17 17 17 17 16 16 16 16 16 16 15 15 16 16 15 16 16 16 15 15 15 16 16 15 15 15
16 15 16 16 15 16 16 16 15 15 15 16 16 16 14 14 14 16 17 17 17 17 17 15 15 14 15 20 17 14 16 14 14 14 15 15 15 15 15 16 16 15
15 15 15 16 16 15 15 15 15 13 13 14 14 15 14 13 14 16 17 16 18 17 18 16 15 13 18 20 20 19 16 15 14 14 15 15 15 15 15 15 15 16
15 15 15 16 15 15 15 15 14 14 13 14 15 16 13 14 15 16 15 16 15 17 17 16 15 16 20 22 22 22 19 15 15 14 14 15 15 16 15 15 15 16
15 16 16 15 16 16 14 14 14 15 15 15 17 15 14 15 15 16 16 16 15 16 17 17 16 17 20 23 23 23 23 19 14 15 15 16 16 17 16 15 14 15
16 16 16 16 15 15 15 15 16 16 16 15 14 14 15 16 17 17 15 16 16 16 15 16 18 16 22 23 24 24 23 19 15 15 15 16 17 18 16 16 16 15
16 16 16 15 15 15 16 16 16 15 16 15 15 16 16 16 16 17 16 16 17 17 16 16 16 17 22 23 23 24 23 19 16 15 14 15 16 17 16 16 16 15
16 15 14 14 15 16 16 17 16 16 16 15 14 14 14 14 15 15 17 17 17 17 17 18 17 17 21 23 24 23 23 15 16 16 15 14 16 16 16 15 16 16
16 16 16 16 16 17 18 17 16 16 15 13 14 15 15 16 15 15 14 16 17 17 18 16 16 15 20 23 24 25 19 14 15 15 15 16 15 17 17 16 16 16
16 16 16 16 16 17 18 16 15 13 14 13 14 15 15 15 14 13 14 14 16 18 18 16 16 14 21 21 23 24 22 16 15 16 16 17 17 16 15 17 18 19
15 15 15 15 16 15 14 14 14 13 12 12 13 13 14 13 13 13 13 14 16 17 16 18 17 14 20 22 24 24 21 14 15 15 17 18 17 17 16 15 16 15
13 13 14 15 14 14 13 13 12 12 14 14 13 13 12 13 13 13 15 14 14 16 14 17 17 12 16 23 24 24 27 17 15 15 17 18 16 14 14 15 16 15
Wind_Direction
199 199 200 201 203 205 206 205 204 205 206 209 210 208 211 208 208 209 201 199 200 206 204 199 194 196 195 195 191 191 192 189 191 186 193 192 201 216 212 213 215 225
199 200 201 202 203 205 207 208 207 206 206 210 214 211 208 208 203 206 205 201 197 202 201 199 196 196 194 193 189 191 194 190 195 182 194 194 203 212 217 213 218 220
197 200 202 203 203 205 207 207 207 208 209 210 211 215 211 206 207 202 205 203 200 200 199 199 198 196 195 195 189 192 195 194 195 191 186 196 200 210 217 213 213 214
197 200 202 205 205 205 206 207 206 208 209 208 210 211 212 210 205 205 203 203 203 200 198 197 197 198 198 197 192 194 194 196 198 194 191 194 201 209 213 219 213 212
197 199 202 204 205 206 205 208 209 206 209 210 210 209 209 211 208 207 203 202 202 202 202 197 195 196 193 196 194 196 192 195 197 197 197 194 199 206 212 214 215 216
197 199 200 203 202 201 206 208 209 209 208 209 209 207 209 208 210 209 205 207 205 205 203 203 198 197 192 194 196 198 196 198 193 197 199 198 201 203 210 210 214 214
195 196 199 201 202 202 206 208 207 209 209 209 205 209 207 207 207 209 208 206 207 207 208 200 198 199 196 192 198 198 199 200 195 195 201 206 205 207 206 209 211 212
195 195 197 198 201 202 204 205 206 206 207 205 208 206 207 207 205 206 207 206 209 207 207 206 198 197 197 195 196 199 199 197 202 196 199 204 205 211 206 208 207 208
194 195 194 197 200 202 205 205 205 205 203 206 207 207 205 209 206 206 203 205 207 207 206 209 201 198 199 198 197 198 198 200 201 201 199 202 206 209 207 205 208 206
194 195 197 199 202 204 206 206 205 204 204 206 206 210 207 205 208 205 203 201 204 205 204 206 204 201 201 202 200 198 199 203 202 203 202 201 205 207 207 204 207 207
193 195 197 200 203 204 206 207 208 208 206 207 207 209 210 206 204 205 203 200 200 201 201 202 202 200 201 205 203 200 201 203 204 204 204 202 204 206 206 204 205 209
194 196 200 201 203 206 208 209 210 211 209 206 208 208 208 210 204 203 202 201 200 199 200 199 199 200 200 203 204 202 202 204 204 207 206 203 205 207 205 204 206 209
194 197 198 202 203 207 209 210 211 211 212 210 205 208 207 209 207 202 200 201 199 198 199 198 198 199 200 202 206 205 202 202 205 207 208 206 207 208 206 205 206 208
194 195 198 200 202 203 206 209 209 211 210 210 205 206 208 208 209 203 200 200 198 199 199 197 197 199 200 201 204 205 203 203 205 205 207 209 210 211 210 209 208 209
192 193 198 201 201 201 204 206 208 207 207 208 208 207 208 210 210 207 201 200 199 199 199 198 199 199 199 200 202 203 204 204 205 206 207 210 214 213 212 212 212 212
189 192 195 199 198 199 200 203 205 203 206 207 209 210 207 208 210 211 208 203 201 200 200 200 201 202 196 192 195 201 202 205 205 207 209 211 214 215 214 213 215 216
188 192 194 197 199 198 198 200 203 204 203 204 207 207 209 205 209 212 214 209 204 203 202 203 203 203 187 186 191 195 201 204 203 204 207 210 213 213 214 213 214 215
188 189 192 196 197 199 198 198 198 201 204 205 205 207 206 209 209 211 215 215 210 208 207 207 208 199 181 185 189 192 196 203 205 204 204 208 214 215 213 212 213 214
186 187 191 193 195 196 195 194 196 200 204 203 206 204 203 208 210 208 212 214 216 212 212 211 214 193 182 185 189 192 195 200 209 207 207 210 213 216 215 211 211 212
187 187 190 191 191 189 192 195 197 201 202 203 202 202 206 209 210 210 210 212 215 217 215 217 218 189 182 185 190 192 194 197 210 210 212 213 214 215 216 214 211 212
189 189 190 188 187 189 191 197 200 201 201 201 202 204 205 207 210 211 212 213 214 216 219 220 224 187 181 184 188 190 193 197 207 214 214 215 215 215 216 215 214 213
189 189 188 187 188 191 194 199 200 200 200 200 204 208 209 210 211 215 215 215 215 216 219 222 223 185 182 183 187 189 188 196 206 214 218 218 219 219 215 214 214 213
191 191 190 191 191 193 198 200 199 200 202 199 205 209 210 211 214 213 216 217 216 217 219 222 226 186 181 184 186 185 181 198 203 212 219 223 226 225 223 218 214 210
194 194 193 193 195 198 200 200 201 201 203 200 205 210 213 216 215 217 219 220 221 222 219 222 228 187 180 184 187 182 184 194 199 207 215 219 225 224 222 225 221 208
196 198 198 197 200 202 201 201 202 202 204 202 208 211 217 219 219 220 221 221 223 225 216 219 227 206 178 183 186 183 188 196 198 208 213 218 218 220 221 222 224 213
195 194 197 199 200 200 200 201 199 201 203 204 208 212 214 218 219 223 225 225 225 227 225 221 225 220 177 185 183 185 190 194 202 206 216 219 217 220 221 224 226 225